Regional Weather Roundup
Issued by NWS

Home | Current Version | Previous Version | Graphics & Text | Print | Product List | Glossary On
Versions: 1 2 3 4 5 6 7 8 9 10 11 12 13 14 15 16 17 18 19 20 21 22 23 24 25 26 27 28 29 30 31 32 33 34 35 36 37 38 39 40 41 42 43 44 45 46 47 48 49 50
305
ASUS43 KMKX 052021
RWRWI

WISCONSIN REGIONAL WEATHER ROUNDUP
NATIONAL WEATHER SERVICE MILWAUKEE/SULLIVAN WI
300 PM CDT THU MAY 05 2016

NOTE: "FAIR" INDICATES FEW OR NO CLOUDS BELOW 12,000 FEET WITH NO
SIGNIFICANT WEATHER AND/OR OBSTRUCTIONS TO VISIBILITY.

WIZ001-002-006>008-014>016-023>028-052100-
NORTHWEST WISCONSIN

CITY           SKY/WX    TMP DP  RH WIND       PRES   REMARKS
SUPERIOR ARPT  SUNNY     75  39  28 SW12G21   29.87F
ASHLAND        MOSUNNY   74  36  25 SW10G17   29.90F
HAYWARD        SUNNY     68  31  25 SW9G18    29.95F
SIREN          SUNNY     68  39  35 S7        29.95F
CUMBERLAND     MOSUNNY   64  32  29 W12G17    29.98S
RICE LAKE      SUNNY     67  30  24 W13       29.99S
CHETEK         SUNNY     67  36  32 W7        29.97F
LADYSMITH      SUNNY     67  37  33 SW10      29.99S
EAU CLAIRE     SUNNY     66  31  27 SW8       29.98F
MENOMONIE      SUNNY     71  34  26 SW10      29.99F
NEW RICHMOND   CLOUDY    66  39  36 SW6       29.99F
OSCEOLA        SUNNY     69  36  29 SW7       30.00F
$$

WIZ003>005-009-010-017-018-052100-
NORTH CENTRAL WISCONSIN

CITY           SKY/WX    TMP DP  RH WIND       PRES   REMARKS
MANITOWISH WTR SUNNY     66  33  29 SW5       29.93F
ARBOR VITAE    SUNNY     66  31  26 SW7       29.94F
WOODRUFF       SUNNY     66  31  26 SW7       29.94F
RHINELANDER    SUNNY     68  27  21 W8G18     29.96F
EAGLE RIVER    SUNNY     65  22  19 SW14      29.94F
LAND O LAKES   SUNNY     67  26  20 W5        29.94F
PHILLIPS       SUNNY     65  37  35 SW10      29.96F
TOMAHAWK       SUNNY     66  29  24 W8        29.96F
MEDFORD        SUNNY     62  36  38 SW12      29.98F
MERRILL        SUNNY     66  32  28 SW7       29.97F
$$

WIZ029-030-035-036-043>047-052100-
CENTRAL WISCONSIN

CITY           SKY/WX    TMP DP  RH WIND       PRES   REMARKS
WAUSAU         SUNNY     65  33  30 W10       29.96F
MOSINEE        SUNNY     64  30  27 W8        30.00F
MARSHFIELD     SUNNY     65  30  27 W8        29.98F
STEVENS POINT  SUNNY     62  32  31 SW14      29.98F
WAUPACA        SUNNY     67  31  25 CALM      29.98F
WAUTOMA        NOT AVBL
WISC RAPIDS    SUNNY     66  21  18 NW3       30.00F
CAMP DOUGLAS   MOSUNNY   66  36  32 W6        29.99F
$$

WIZ011>013-019>022-031-037>040-048>050-052100-
NORTHEAST WISCONSIN

CITY           SKY/WX    TMP DP  RH WIND       PRES   REMARKS
ANTIGO         SUNNY     65  30  27 W3        29.96F
SHAWANO        SUNNY     68  34  28 W9        29.96F
OCONTO         SUNNY     59  40  48 S8        29.97F
STURGEON BAY   SUNNY     57  34  41 NW7       30.00F
GREEN BAY      SUNNY     63  39  41 VRB5      29.98F
MANITOWOC      SUNNY     53  39  59 SE10      30.00F
APPLETON       SUNNY     61  34  36 VRB6      29.98F
CLINTONVILLE   SUNNY     64  32  29 NW3       29.97F
OSHKOSH        SUNNY     63  38  39 VRB7      29.99F
$$

WIZ032>034-041-042-053>061-052100-
SOUTHWEST WISCONSIN

CITY           SKY/WX    TMP DP  RH WIND       PRES   REMARKS
LA CROSSE      SUNNY     68  33  27 NW6       30.01F
SPARTA         SUNNY     67  30  25 W8G16     30.01F
VIROQUA        SUNNY     64  29  26 W7        30.02F
BOSCOBEL       SUNNY     68  32  26 VRB3      30.01F
PRAIRIE DU CHI SUNNY     65  31  27 N5        30.02F
PLATTEVILLE    SUNNY     63  38  39 W7        30.02S
$$

WIZ056-057-062-063-064-067-068-052100-
SOUTH CENTRAL WISCONSIN

CITY           SKY/WX    TMP DP  RH WIND       PRES   REMARKS
REEDSBURG      SUNNY     63  34  33 W9        30.00F
BARABOO/DELLS  SUNNY     66  19  17 N9        29.99F
LONE ROCK      SUNNY     66  39  37 MISG      30.01F
MINERAL POINT  SUNNY     64  32  29 NW3       30.02S
MADISON        SUNNY     64  37  36 CALM      29.99F
MIDDLETON      SUNNY     65  39  38 W6        30.00F
WATERTOWN      SUNNY     63  37  37 NW7       29.99F
MONROE         SUNNY     63  34  34 CALM      30.00F
JANESVILLE     SUNNY     64  37  36 N9        29.99F
$$

WIZ051-052-058>065-066-070>072-052100-
SOUTHEAST WISCONSIN

CITY           SKY/WX    TMP DP  RH WIND       PRES   REMARKS
MILWAUKEE      MOSUNNY   54  39  57 NE9       30.00F
WAUKESHA       SUNNY     61  37  41 W7        30.00F
MILWAUKEE/TIMM SUNNY     61  36  39 E7        29.99F
RACINE         SUNNY     54  39  57 NE9       30.01F
BURLINGTON     SUNNY     62  36  37 NW9       29.99S
KENOSHA        SUNNY     64  43  46 VRB3      29.99F
FOND DU LAC    SUNNY     62  40  44 CALM      29.99F
SHEBOYGAN      SUNNY     58  43  57 E8        29.98F
WEST BEND      SUNNY     61  32  33 W5        29.99S
JUNEAU         SUNNY     61  38  43 N8        30.00F
$$

LSZ147-162-052100-
LAKE SUPERIOR

STATION/POSITION TIME  TEMP    WIND        PRES    WAVE
                       AIR SEA DIR/SP/G            HT/PER
                 (UTC) (F)     (DEG/KT/KT) (MB)    (FT/S)
W MID LAKE BUOY  1950   43 37  180/  6/  6 1012.7F   0
DEVILS ISLAND    2000   61     210/  7/ 10 1011.7F
PORT WING        2000          220/ 11/ 16 1011.5F
SAXON HARBOR     1900           70/  5/ 16 1012.5F
$$

LMZ867-665-643>646-052100-
LAKE MICHIGAN

STATION/POSITION TIME  TEMP    WIND        PRES    WAVE
                       AIR SEA DIR/SP/G            HT/PER
                 (UTC) (F)     (DEG/KT/KT) (MB)    (FT/S)
CHAMBERS ISLAND  1900   54     160/  4/  7 1015.6F
N MID LAKE BUOY  1950   40 39  200/  6/  6 1015.5F   0
NORTHPORT PIER   1900   43     140/  6/  7 1015.6F
ALGOMA LAKESHORE 1900          160/  6/  7   N/A
KEWAUNEE LAKESHO 2000   45     120/  5/  7 1015.0F
SHEBOYGAN LAKESH 2000   43      60/ 10/ 10 1016.5F
PORT WASHINGTON  1900   45      70/  4/  7 1016.9
S MID LAKE BUOY  1950   41 40  360/ 12/ 14 1016.0S   3/ 6
KENOSHA   LAKESH 2000   45      50/ 11/ 14 1015.6F
$$

TC  - TEMPERATURE IN CELSIUS
VSB - VISIBILITY IN STATUTE MILES
WCI - WIND CHILL INDEX
HX  - HEAT INDEX





USA.gov is the U.S. government's official web portal to all federal, state and local government web resources and services.